COSMOS 1275 DEB, 39961

Orbit data source: Space-Track

COSMOS 1275 DEB, 39961 is space debris in LEO originally from a launch on Thu, 04 Jun 1981 UTC launched from the Plesetsk Missile And Space Complex (PKMTR). Debris objects in space refer to the collection of defunct objects orbiting the Earth. Examples of debris include non-operational satellites, rocket bodies, and fragments generated from explosions, collisions, or faulty payload assembly.

Loading next visibility...
Identifier
39961, 1981-053NX
Orbit
LEO
Country
Flag of CISCIS
Related business
Manufacturer
Unknown
Mission
Spacecraft
Bus & Motor
Unknown
Mass
Unknown
Launch date (UTC)
1981-06-04 (45 years ago)
Launch vehicle
Unknown
Launch site
Plesetsk Missile And Space Complex (PKMTR)
Object type
Payload
Rocket body
Debris
Shape & HBR
Unknown shape, 0.1 m
Radar Cross Section
Small (<0.1 m²)

Expand to show TLE details & history
Last TLE update: 5 days ago

TLE from 5 days ago
0 COSMOS 1275 DEB
1 39961U 81053NX  26117.12439877  .00001336  00000-0  95346-3 0  9996
2 39961  82.7623 253.5732 0053417  87.3439  38.3407 13.95952301603360
Epoch: 2026-04-27T02:59Z
TLE epoch observation values (Epoch: 2026-04-27T02:59:08.053Z)
Latitude
53.41065°
Longitude
163.87341°
Altitude
886.136 km
Speed
7.43 km/s
True Right ascension
04h 15m 06s
True Declination
53° 14' 56"
Sunlit
Object was in daylight at epoch
Visualization orbit readout
Latitude
Unknown
Longitude
Unknown
Altitude
Unknown
Speed
Unknown
Apparent Right ascension
Unknown
Apparent Declination
Unknown
Sunlit
N/A
Visualization observer readout
Local Sidereal Time
03:52:33
Azimuth
Unknown
Elevation
Unknown
Doppler factor
Unknown
Orbital elements
Apogee altitude
943.876 km
Perigee altitude
866.068 km
Semi-major axis
7,283.109 km
Eccentricity
0.00534
Inclination
82.7623°
RAAN
253.5732°
Arg. of periapsis
87.3439°
True anomaly
38.72241°
Mean anomaly
38.3407°
Eccentric anomaly
38.53136°
Mean motion
3.49195 °/min
Orbital period
103.09 mins
BSTAR
0.00095346
Loading maneuver chart data...
Computing Atmospheric mass density...
Loading historical data...
Loading historical data...
Loading historical data...
Loading historical data...
Loading historical data...
Loading historical data...
Loading historical data...

Documentation

Showing up to 5 results
|